Location: Gleizolles
(44.4833°N, 6.7667°E)
Time: 04:33:19
(UTC+00:00)

Transit 4A - Pass Details

Date: 02 July 2024
Orbit: 870 x 973 km, 66.8° (Epoch: 14 July)

Event Time Altitude Azimuth Distance (km) Brightness Sun altitude
Rises 01:24:35 0° 331° (NNW) 3,483 11.4 -18.2°
Reaches altitude 10° 01:29:57 10° 11° (NNE) 2,564 11.4 -17.7°
Maximum altitude 01:30:54 10° 21° (NNE) 2,541 11.5 -17.7°
Drops below altitude 10° 01:31:53 10° 30° (NNE) 2,572 11.5 -17.6°
Sets 01:37:19 0° 71° (ENE) 3,542 11.7 -17.1°
